User: anonymous   Login
Location: Colle San Luigi
(43.5500°N, 13.4167°E)
Time: 16:59:18
(UTC+00:00)
Language:

STARLINK-1205 - Orbit

View from above orbital plane
View from above orbital plane
View from above satellite
View from above satellite

Ground track
Ground track

The orbit data is extracted from the following two-line orbital elements,

1 45184U 20012G   20195.91667824 +.00017472 +00000-0 +12158-2 0  9997
2 45184 052.9995 295.7394 0001210 109.1537 022.0141 15.05565071001806
Epoch (UTC): 13 July 2020 22:00:01
Eccentricity: 0.0001210
inclination: 52.9995°
perigee height: 549 km
apogee height: 550 km
right ascension of ascending node: 295.7394°
argument of perigee: 109.1537°
revolutions per day: 15.05565071
mean anomaly at epoch: 22.0141°
orbit number at epoch: 180

The dashed part of the orbit path shows where the satellite is in the earth's shadow,  

DLR